Westhampton Beach, NY

3:02 AM EDT on October 18, 2019 (GMT -0400)
The Gabreski

Weather History for KFOK - September, 2019

Change the Weather History Date:

Saturday, September 21, 2019

  Actual Average Record
Temperature  
Mean Temperature 62 °F -  
Max Temperature 79 °F 70 °F 80 °F (2005)
Min Temperature 46 °F 50 °F 37 °F (2008)
Degree Days  
Heating Degree Days 3    
Growing Degree Days 12 (Base 50)    
Moisture  
Dew Point 53 °F    
Average Humidity 81    
Maximum Humidity 100    
Minimum Humidity 43    
Precipitation  
Precipitation 0.00 in - - ()
Sea Level Pressure  
Sea Level Pressure 30.20 in    
Wind  
Wind Speed 1 mph (SSW)    
Max Wind Speed 8 mph    
Max Gust Speed -    
Visibility 6 miles    
Events Fog    
Averages and records for this station are not official NWS values.
T = Trace of Precipitation, MM = Missing Value Source: NWS Daily Summary

Daily Weather History Graph

Daily Weather History Graph

Search for Another Location

Airport or City:

Astronomy

Sep. 21, 2019 Rise Set
Actual Time 6:36 AM EDT 6:49 PM EDT
Civil Twilight 6:09 AM EDT 7:17 PM EDT
Nautical Twilight 5:37 AM EDT 7:49 PM EDT
Astronomical Twilight 5:04 AM EDT 8:21 PM EDT
Moon 11:22 PM EDT (9/21) 1:42 PM EDT (9/21)
Length of Visible Light 13h 07m
Length of Day
12h 13m
Waning Gibbous, 55% of the Moon is Illuminated
Sep 21
Waning Gibbous
Sep 21
Last Quarter
Sep 28
New
Oct 5
First Quarter
Oct 13
Full

Hourly Weather History & Observations

Time (EDT) Temp. Dew Point Humidity Pressure Visibility Wind Dir Wind Speed Gust Speed Precip Events Conditions
12:53 AM 48.9 °F 46.9 °F 93% 30.18 in 10.0 mi Calm Calm - N/A   Clear
1:53 AM 48.9 °F 46.0 °F 90% 30.19 in 10.0 mi Calm Calm - N/A   Clear
2:53 AM 48.0 °F 45.0 °F 89% 30.19 in 10.0 mi Calm Calm - N/A   Clear
3:53 AM 48.0 °F 46.0 °F 93% 30.20 in 10.0 mi Calm Calm - N/A   Clear
4:53 AM 46.0 °F 44.1 °F 93% 30.20 in 10.0 mi Calm Calm - N/A   Clear
5:53 AM 46.0 °F 43.0 °F 89% 30.20 in 10.0 mi Calm Calm - N/A   Clear
6:53 AM 46.0 °F 43.0 °F 89% 30.20 in 10.0 mi Calm Calm - N/A   Clear
7:53 AM 55.9 °F 52.0 °F 87% 30.22 in 10.0 mi Calm Calm - N/A   Clear
8:53 AM 69.1 °F 59.0 °F 70% 30.23 in 10.0 mi NW 6.9 mph - N/A   Clear
9:53 AM 72.0 °F 57.0 °F 59% 30.23 in 10.0 mi Calm Calm - N/A   Clear
10:53 AM 75.9 °F 55.0 °F 48% 30.23 in 10.0 mi Variable 4.6 mph - N/A   Clear
11:53 AM 77.0 °F 55.0 °F 47% 30.22 in 10.0 mi South 3.5 mph - N/A   Clear
12:53 PM 77.0 °F 55.0 °F 47% 30.22 in 10.0 mi South 5.8 mph - N/A   Clear
1:53 PM 77.0 °F 53.1 °F 43% 30.20 in 10.0 mi SSE 8.1 mph - N/A   Clear
2:53 PM 77.0 °F 55.9 °F 48% 30.19 in 10.0 mi SW 6.9 mph - N/A   Clear
3:53 PM 78.1 °F 57.0 °F 48% 30.18 in 10.0 mi SW 8.1 mph - N/A   Clear
4:53 PM 75.0 °F 55.9 °F 51% 30.17 in 10.0 mi SSW 6.9 mph - N/A   Clear
5:53 PM 73.0 °F 57.9 °F 59% 30.18 in 10.0 mi SW 5.8 mph - N/A   Clear
6:53 PM 69.1 °F 60.1 °F 73% 30.19 in 10.0 mi Calm Calm - N/A   Clear
7:53 PM 63.0 °F 60.1 °F 90% 30.19 in 10.0 mi South 3.5 mph - N/A   Clear
8:53 PM 59.0 °F 57.0 °F 93% 30.20 in 2.5 mi Calm Calm - N/A   Clear
9:11 PM 57.0 °F 57.0 °F 100% 30.20 in 0.8 mi Calm Calm - N/A   Mist
9:22 PM 57.0 °F 55.9 °F 96% 30.20 in 1.0 mi Calm Calm - N/A Fog Shallow Fog
9:53 PM 55.9 °F 54.0 °F 93% 30.20 in 4.0 mi Calm Calm - N/A Fog Shallow Fog
9:55 PM 55.9 °F 54.0 °F 93% 30.20 in 0.8 mi Calm Calm - N/A Fog Shallow Fog
10:05 PM 55.0 °F 54.0 °F 96% 30.20 in 0.2 mi Calm Calm - N/A Fog Fog
10:13 PM 53.1 °F 52.0 °F 96% 30.20 in 1.2 mi Calm Calm - N/A Fog Fog
10:15 PM 53.1 °F 52.0 °F 96% 30.20 in 4.0 mi Calm Calm - N/A Fog Fog
10:42 PM 53.1 °F 51.1 °F 93% 30.20 in 1.8 mi Calm Calm - N/A   Overcast
10:53 PM 54.0 °F 52.0 °F 93% 30.20 in 1.0 mi Calm Calm - N/A   Mist
11:10 PM 52.0 °F 51.1 °F 97% 30.20 in 4.0 mi Calm Calm - N/A   Overcast
11:14 PM 52.0 °F 51.1 °F 97% 30.20 in 1.2 mi Calm Calm - N/A   Overcast
11:21 PM 51.1 °F 50.0 °F 96% 30.20 in 0.2 mi Calm Calm - N/A   Mist
11:35 PM 52.0 °F 51.1 °F 97% 30.20 in 0.8 mi Calm Calm - N/A   Mist
11:53 PM 51.1 °F 50.0 °F 96% 30.21 in 0.5 mi Calm Calm - N/A   Mist